Regional Weather Roundup
Issued by NWS

Home | Current Version | Previous Version | Text Only | Print | Product List | Glossary Off
Versions: 1 2 3 4 5 6 7 8 9 10 11 12 13 14 15 16 17 18 19 20 21 22 23 24 25 26 27 28 29 30 31 32 33 34 35 36 37 38 39 40 41 42 43 44 45 46 47 48 49 50

000
ASUS43 KMPX 260710
RWRMN
WEATHER ROUNDUP FOR MINNESOTA
NATIONAL WEATHER SERVICE TWIN CITIES/CHANHASSEN MN
100 AM CST MON JAN 26 2015


NOTE: "FAIR" INDICATES FEW OR NO CLOUDS BELOW 12,000 FEET WITH NO
SIGNIFICANT WEATHER AND/OR OBSTRUCTIONS TO VISIBILITY. N/A MEANS
CURRENT SKY AND/OR WEATHER CONDITIONS ARE NOT AVAILABLE.

MNZ060>063-068>070-260800-
   Twin Cities Metro

CITY           SKY/WX    TMP DP  RH WIND       PRES   REMARKS
TWIN CITIES    CLOUDY    22  16  78 S5        29.94F WCI  16
ST PAUL        CLOUDY    22  17  81 S6        29.96F WCI  14
CRYSTAL        CLOUDY    24  17  74 S8        29.92F WCI  15
BLAINE         CLOUDY    25  19  80 S7        29.91F WCI  17
LAKEVILLE      CLOUDY    19  18  93 S5        29.92F WCI  13
EDEN PRAIRIE   CLOUDY    22  17  81 SW7       29.92F WCI  13
SOUTH ST PAUL  CLOUDY    23  18  80 S5        29.93F WCI  17
LAKE ELMO      MOCLDY    23  19  86 S6        29.94F WCI  16
$$
MNZ001>005-007-008-013>017-022>024-027-028-260800-
   Northwest Minnesota

CITY           SKY/WX    TMP DP  RH WIND       PRES   REMARKS
BEMIDJI        CLOUDY    25  19  75 S12       29.67F WCI  15
HALLOCK        CLEAR     25  21  86 S16       29.59F WCI  12
ROSEAU         CLOUDY    28  23  80 S16       29.59F WCI  17
WARROAD        CLOUDY    25  21  86 S7        29.59F WCI  17
THIEF RVR FALL CLOUDY    27  25  93 S17       29.64F WCI  14
CROOKSTON      MOCLDY    27  25  93 SW18      29.67F WCI  13
FOSSTON        CLOUDY    25  21  86 S20G26    29.67F WCI  11
DETROIT LAKES  CLOUDY    28  25  86 S16       29.69F WCI  17
MOORHEAD       CLOUDY    28  28 100 S18G24    29.67F WCI  16
PARK RAPIDS    CLOUDY    25  19  78 S9        29.73F WCI  15
MAHNOMEN       PTSUNNY   25  22  87 S22       29.65F WCI  11
$$
MNZ006-009>011-018-025>026-260800-
   North Central Minnesota

CITY           SKY/WX    TMP DP  RH WIND       PRES   REMARKS
BAUDETTE       CLOUDY    24  18  77 S15G23    29.62F WCI  11
FLAG ISLAND    CLOUDY    21  19  93 S16       29.58F WCI   7
INTL FALLS     LGT SNOW  22  18  85 S5        29.70F VSB 3/4 WCI  16
WASKISH        CLOUDY    27  21  80 S6        29.67F WCI  20
BIG FORK       FLURRIES  25  18  74 S12G17    29.71F WCI  14
LONGVILLE      CLOUDY    25  19  80 S7        29.76F WCI  17
GRAND RAPIDS   CLOUDY    21  16  79 S15       29.74F WCI   8
CRANE LAKE     LGT SNOW  18  16  93 S6        29.76F WCI   9
ORR            LGT SNOW  19  12  73 S9        29.71F WCI   9
COOK           FLURRIES  19  14  79 S7        29.74F WCI  10
WALKER         CLOUDY    25  18  74 S10G17    29.71F WCI  14
$$
MNZ012-019>021-037-260800-
   Northeast Minnesota

CITY           SKY/WX    TMP DP  RH WIND       PRES   REMARKS
DULUTH         CLOUDY    20  11  68 S12       29.81F WCI   8
ELY            LGT SNOW  18  14  86 S10       29.77F WCI   6
HIBBING        CLOUDY    20  12  71 S7        29.77F WCI  11
EVELETH        MOCLDY    21  14  73 S7        29.79F WCI  13
DULUTH HARBOR  CLOUDY    21  12  68 CALM      29.88F
TWO HARBORS    CLOUDY    21  16  79 SW5       29.83F WCI  15
SILVER BAY     CLOUDY    19  16  86 CALM      29.83F
GRAND MARAIS     N/A     24  15  68 SW12      29.89F WCI  13
G MARAIS ARPRT FLURRIES  16  10  79 S5        29.80F WCI   9
$$
MNZ029>031-032-039>041-046>048-054>057-064-260800-
   West Central Minnesota

CITY           SKY/WX    TMP DP  RH WIND       PRES   REMARKS
FERGUS FALLS   MOCLDY    27  25  93 S16       29.81F WCI  14
WHEATON        CLOUDY    27  25  93 SE9       29.85S WCI  17
MORRIS         MOCLDY    28  28 100 S9        29.84F FOG     WCI  20
ALEXANDRIA     CLOUDY    27  24  89 S12       29.80F WCI  17
ELBOW LAKE     CLOUDY    27  26  94 S12       29.83F WCI  17
WADENA         CLOUDY    25  19  80 S10       29.76F WCI  15
GLENWOOD       CLOUDY    27  27 100 S12       29.82F WCI  16
APPLETON       MOCLDY    32  28  86 SE7       29.84F WCI  26
BENSON         CLOUDY    30  28  93 S6        29.86F WCI  24
ORTONVILLE     PTCLDY    28  27  93 SE6       29.83F WCI  22
MADISON        MOCLDY    34  32  93 S8        29.84F WCI  27
WILLMAR        CLOUDY    30  28  93 S3        29.90S
$$
MNZ033>034-036-042>043-049>051-058-059-260800-
   Central Minnesota

CITY           SKY/WX    TMP DP  RH WIND       PRES   REMARKS
ST CLOUD       CLOUDY    24  19  81 S13       29.85F WCI  12
SAUK CENTRE    CLOUDY    27  25  92 S15       29.82F WCI  15
PAYNESVILLE    CLOUDY    25  24  96 SE12      29.87F WCI  14
AITKIN         CLOUDY    27  18  69 S9G16     29.79F WCI  17
PINE RIVER     CLOUDY    25  21  86 S8        29.82S WCI  16
BRAINERD       FLURRIES  24  19  81 S12       29.81F WCI  13
STAPLES        CLOUDY    25  19  80 S10       29.79F WCI  15
LONG PRAIRIE   CLOUDY    27  23  86 S15       29.80F WCI  15
LITTLE FALLS   FLURRIES  27  21  80 S6        29.83F WCI  20
LITCHFIELD     CLOUDY    27  27 100 CALM      29.89R
BUFFALO        CLOUDY    24  19  80 S6        29.91S WCI  17
MAPLE LAKE     CLOUDY    25  21  84 S6        29.90F WCI  18
$$
MNZ037-044-045-052-053-260800-
   East Central Minnesota

CITY           SKY/WX    TMP DP  RH WIND       PRES   REMARKS
PRINCETON      CLOUDY    25  18  74 S9        29.87F WCI  15
MORA           CLOUDY    23  16  74 S8        29.88F WCI  14
CAMBRIDGE      CLOUDY    25  16  68 S10       29.87F WCI  15
RUSH CITY      CLOUDY    22  16  77 S8        29.89F WCI  12
MOOSE LAKE     CLOUDY    23  16  74 S8        29.81F WCI  14
HINCKLEY       CLOUDY    23  18  80 S10       29.86F WCI  12
CLOQUET        CLOUDY    19  12  73 S7        29.81F WCI  10
MCGREGOR       CLOUDY    25  18  74 S9        29.80F WCI  15
$$
MNZ071>073-080-081-089-090-097-098-260800-
   Southwest Minnesota

CITY           SKY/WX    TMP DP  RH WIND       PRES   REMARKS
MONTEVIDEO     MOCLDY    32  32 100 S6        29.88R WCI  26
GRANITE FALLS  CLOUDY    32  30  93 CALM      29.91R
CANBY          MOCLDY    33  30  89 SW6       29.85F WCI  28
MARSHALL       MOCLDY    30  27  86 W6        29.87F WCI  24
REDWOOD FALLS  CLOUDY    31  28  89 S12       29.88F WCI  22
OLIVIA         CLOUDY    30  28  93 S7        29.89S WCI  23
PIPESTONE      MOCLDY    30  30 100 SW13      29.87F FOG     WCI  20
WINDOM         CLOUDY    32  30  93 S9        29.90F WCI  24
WORTHINGTON    CLOUDY    30  28  93 SW9       29.92F WCI  22
JACKSON        CLOUDY    32  30  93 S9        29.93F WCI  24
TRACY          MOCLDY    32  30  93 SW13      29.86F WCI  23
SLAYTON        CLOUDY    31  29  94 S13       29.88F WCI  21
$$
MNZ065>067-074>077-082>085-091>093-260800-
   South Central Minnesota

CITY           SKY/WX    TMP DP  RH WIND       PRES   REMARKS
MANKATO        CLOUDY    27  19  74 S9        29.91F WCI  17
NEW ULM        CLOUDY    28  27  93 S9        29.92F WCI  20
ST JAMES       CLOUDY    30  28  93 S9        29.93F WCI  22
FAIRMONT       CLOUDY    30  25  80 S12       29.94F WCI  21
GLENCOE        CLOUDY    27  24  89 S7        29.91F WCI  19
FARIBAULT      PTCLDY    21  19  93 S7        29.93F WCI  13
OWATONNA       PTCLDY    23  19  86 S8        29.94F WCI  14
WASECA         MOCLDY    25  23  93 S6        29.96F WCI  18
ALBERT LEA     PTCLDY    23  21  93 S3        29.95F
$$
MNZ078>079-086>088-094>096-260800-
   Southeast Minnesota

CITY           SKY/WX    TMP DP  RH WIND       PRES   REMARKS
ROCHESTER      CLOUDY    23  19  85 S9        29.95F WCI  13
RED WING       CLOUDY    19  16  86 CALM      29.96F
STANTON        CLOUDY    23  19  85 S7        29.92F WCI  15
DODGE CENTER   PTCLDY    21  21 100 S8        29.94F WCI  12
WINONA         CLOUDY    21  18  86 CALM      30.01F
AUSTIN         MOCLDY    21  19  93 S6        29.96F WCI  14
PRESTON        CLOUDY    24  19  83 SW5       29.97F WCI  18
$$
ABBREVIATIONS USED IN REMARKS
   TC - TEMPERATURES IN CELSIUS
  WCI - WIND CHILL INDEX
   HX - HEAT INDEX
  VSB - VISIBILITY
$$


USA.gov is the U.S. government's official web portal to all federal, state and local government web resources and services.